Weather History for Edson, AB

Change the Weather History Date:

Tuesday, January 15, 2013

  Actual Average Record
Temperature  
Mean Temperature 40 °F -  
Max Temperature 52 °F - - ()
Min Temperature 29 °F - - ()
Degree Days  
Heating Degree Days 24    
Moisture  
Dew Point 19 °F    
Average Humidity 32    
Maximum Humidity 64    
Minimum Humidity 11    
Precipitation  
Precipitation 0.00 in - - ()
Sea Level Pressure  
Sea Level Pressure 29.82 in    
Wind  
Wind Speed 13 mph ()    
Max Wind Speed 23 mph    
Max Gust Speed 43 mph    
T = Trace of Precipitation, MM = Missing Value Source: Averaged Metar Reports

Daily Weather History Graph

Daily Weather History Graph

Search for Another Location

Airport:

Trip Planner

Search our weather history database for the weather conditions in past years. The results will help you decide how hot, cold, wet, or windy it might be!

Date:

Astronomy

Jan. 15, 2013 Rise Set
Actual Time 8:53 AM MST 4:57 PM MST
Civil Twilight 8:12 AM MST 5:38 PM MST
Nautical Twilight 7:28 AM MST 6:22 PM MST
Astronomical Twilight 6:46 AM MST 7:04 PM MST
Moon 10:15 AM MST (1/15) 10:43 PM MST (1/15)
Length of Visible Light 9h 25m
Length of Day
8h 03m
Waxing Crescent, 20% of the Moon is Illuminated
Jan 15
Waxing Crescent
Jan 18
First Quarter
Jan 26
Full
Feb 3
Last Quarter
Feb 10
New

Hourly Weather History & Observations

Time (MST) Temp. Windchill Dew Point Humidity Pressure Visibility Wind Dir Wind Speed Gust Speed Precip Events Conditions
12:00 AM 39.9 °F 35.1 °F 27.1 °F 60% 29.82 in - West 6.9 mph - N/A   Unknown
1:00 AM 38.5 °F 33.4 °F 27.0 °F 63% 29.82 in - West 6.9 mph - N/A   Unknown
2:00 AM 38.8 °F 32.1 °F 27.3 °F 63% 29.82 in - West 10.4 mph - N/A   Unknown
3:00 AM 39.7 °F 32.7 °F 28.6 °F 64% 29.82 in - WSW 11.5 mph - N/A   Unknown
4:00 AM 45.7 °F 38.8 °F 29.7 °F 54% 29.79 in - West 16.1 mph 24.2 mph N/A   Unknown
5:00 AM 47 °F - 28 °F 35% 29.78 in - West 12.7 mph - -  
6:00 AM 46.6 °F - 26.4 °F 45% 29.77 in - West 12.7 mph 21.9 mph N/A   Unknown
7:00 AM 47.7 °F - 24.1 °F 40% 29.77 in - West 15.0 mph 29.9 mph N/A   Unknown
8:00 AM 50.0 °F - 20.7 °F 32% 29.81 in - West 16.1 mph 28.8 mph N/A   Unknown
9:00 AM 49.5 °F - 19.6 °F 31% 29.84 in - West 18.4 mph 31.1 mph N/A   Unknown
10:00 AM 49.6 °F - 18.3 °F 29% 29.86 in - West 15.0 mph 27.6 mph N/A   Unknown
11:00 AM 50 °F - 17 °F 16% 29.87 in - West 16.1 mph - -  
11:00 AM 49.8 °F - 17.4 °F 28% 29.87 in - West 16.1 mph 28.8 mph N/A   Unknown
12:00 PM 51.1 °F - 16.0 °F 25% 29.86 in - West 19.6 mph 32.2 mph N/A   Unknown
1:00 PM 51.4 °F - 14.9 °F 23% 29.86 in - West 17.3 mph 35.7 mph N/A   Unknown
2:00 PM 52.0 °F - 14.4 °F 22% 29.84 in - West 12.7 mph 20.7 mph N/A   Unknown
3:00 PM 52.7 °F - 13.8 °F 21% 29.81 in - West 19.6 mph 38.0 mph N/A   Unknown
4:00 PM 52.3 °F - 12.2 °F 20% 29.84 in - West 23.0 mph 39.1 mph N/A   Unknown
5:00 PM 51 °F - 13 °F 11% 29.85 in - West 16.1 mph - -  
5:00 PM 51.4 °F - 13.1 °F 22% 29.85 in - West 16.1 mph 24.2 mph N/A   Unknown
6:00 PM 52.0 °F - 13.5 °F 22% 29.83 in - West 19.6 mph 31.1 mph N/A   Unknown
7:00 PM 51.6 °F - 13.6 °F 22% 29.82 in - West 19.6 mph 29.9 mph N/A   Unknown
8:00 PM 51.6 °F - 13.8 °F 22% 29.81 in - West 17.3 mph 28.8 mph N/A   Unknown
9:00 PM 52.0 °F - 15.3 °F 23% 29.81 in - West 21.9 mph 42.6 mph N/A   Unknown
10:00 PM 51.1 °F - 19.0 °F 28% 29.81 in - West 21.9 mph 39.1 mph N/A   Unknown
11:00 PM 51 °F - 19 °F 16% 29.82 in - West 19.6 mph - -  
11:00 PM 50.5 °F - 18.9 °F 29% 29.82 in - West 19.6 mph 38.0 mph N/A   Unknown